| time (UTC) | temp F | wind direction | speed knots | gust knots | rain 1hr in | rain 24hr in | rain mn in | humidity % | barometer mb |
| 20260507075736 | 54 | 128 | 2.6 | 4.3 | 0.00 | 0.00 | 0.00 | 12 | 1010.0 |
| 20260507074735 | 55 | 0 | 0.0 | 0.0 | 0.00 | 0.00 | 0.00 | 12 | 1010.0 |
| 20260507073734 | 54 | 0 | 0.0 | 0.0 | 0.00 | 0.00 | 0.00 | 12 | 1010.0 |
| 20260507071520 | 55 | 0 | 0.0 | 0.0 | 0.00 | 0.00 | 0.00 | 12 | 1010.0 |
| 20260507070519 | 45 | 0 | 0.9 | 0.0 | 0.00 | 0.00 | 0.00 | 16 | 1010.0 |
| 20260507064307 | 46 | 0 | 0.9 | 0.0 | 0.00 | 0.00 | 0.00 | 16 | 1010.0 |
| 20260507062056 | 47 | 0 | 0.9 | 0.0 | 0.00 | 0.00 | 0.00 | 16 | 1010.0 |
| 20260507061054 | 48 | 0 | 0.9 | 0.0 | 0.00 | 0.00 | 0.00 | 16 | 1010.0 |
| 20260507060053 | 49 | 0 | 0.9 | 0.0 | 0.00 | 0.00 | 0.00 | 16 | 1010.0 |
| 20260507055052 | 50 | 0 | 0.9 | 0.0 | 0.00 | 0.00 | 0.00 | 16 | 1010.0 |
| 20260507054050 | 39 | 110 | 2.6 | 0.0 | 0.00 | 0.00 | 0.00 | 10 | 1010.0 |
| 20260507051837 | 40 | 0 | 0.0 | 0.0 | 0.00 | 0.00 | 0.00 | 10 | 1011.0 |
| 20260507050836 | 40 | 0 | 0.0 | 0.0 | 0.00 | 0.00 | 0.00 | 10 | 1011.0 |
| 20260507045835 | 39 | 0 | 0.0 | 0.0 | 0.00 | 0.00 | 0.00 | 10 | 1011.0 |
| 20260507044833 | 40 | 0 | 0.0 | 0.0 | 0.00 | 0.00 | 0.00 | 10 | 1011.0 |
| 20260507043831 | 39 | 0 | 0.0 | 0.0 | 0.00 | 0.00 | 0.00 | 93 | 1011.0 |
| 20260507042830 | 40 | 0 | 0.0 | 0.0 | 0.00 | 0.00 | 0.00 | 93 | 1011.0 |
| 20260507041829 | 41 | 0 | 0.0 | 0.0 | 0.00 | 0.00 | 0.00 | 93 | 1011.0 |
| 20260507035615 | 42 | 0 | 0.0 | 0.0 | 0.00 | 0.00 | 0.00 | 93 | 1011.0 |
| 20260507034614 | 43 | 0 | 0.0 | 0.0 | 0.00 | 0.00 | 0.00 | 93 | 1011.0 |
| 20260507032359 | 44 | 0 | 0.0 | 0.0 | 0.00 | 0.00 | 0.00 | 93 | 1011.0 |
| 20260507030141 | 38 | 0 | 0.0 | 0.0 | 0.00 | 0.00 | 0.00 | 82 | 1011.0 |
| 20260507023926 | 39 | 0 | 0.0 | 0.0 | 0.00 | 0.00 | 0.00 | 82 | 1011.0 |
| 20260507020456 | 40 | 0 | 0.0 | 0.0 | 0.00 | 0.00 | 0.00 | 82 | 1011.0 |
| 20260507014245 | 41 | 0 | 0.0 | 0.0 | 0.00 | 0.00 | 0.00 | 82 | 1011.0 |
| 20260507012034 | 42 | 0 | 0.0 | 0.0 | 0.00 | 0.00 | 0.00 | 82 | 1011.0 |
| 20260507005822 | 43 | 0 | 0.0 | 0.0 | 0.00 | 0.00 | 0.00 | 82 | 1011.0 |
| 20260507004820 | 44 | 0 | 0.0 | 0.0 | 0.00 | 0.00 | 0.00 | 82 | 1011.0 |
| 20260507002604 | 45 | 0 | 0.0 | 0.0 | 0.00 | 0.00 | 0.00 | 82 | 1011.0 |
| 20260507001603 | 46 | 0 | 0.0 | 0.0 | 0.00 | 0.00 | 0.00 | 82 | 1011.0 |
| 20260506235352 | 47 | 0 | 0.0 | 0.0 | 0.00 | 0.00 | 0.00 | 82 | 1011.0 |
| 20260506234351 | 48 | 0 | 0.0 | 0.0 | 0.00 | 0.00 | 0.00 | 82 | 1011.0 |
| 20260506233350 | 49 | 0 | 0.0 | 0.0 | 0.00 | 0.00 | 0.00 | 82 | 1011.0 |
| 20260506232350 | 50 | 0 | 0.0 | 0.0 | 0.00 | 0.00 | 0.00 | 82 | 1011.0 |
| 20260506231349 | 51 | 0 | 0.0 | 0.0 | 0.00 | 0.00 | 0.00 | 82 | 1011.0 |
| 20260506230348 | 53 | 0 | 0.0 | 0.0 | 0.00 | 0.00 | 0.00 | 71 | 1011.0 |
| 20260506225347 | 53 | 0 | 0.0 | 0.0 | 0.00 | 0.00 | 0.00 | 71 | 1011.0 |
| 20260506224346 | 53 | 0 | 0.0 | 0.0 | 0.00 | 0.00 | 0.00 | 71 | 1011.0 |
| 20260506223346 | 53 | 0 | 0.0 | 0.0 | 0.00 | 0.00 | 0.00 | 76 | 1011.0 |
| 20260506222345 | 53 | 0 | 0.0 | 0.0 | 0.00 | 0.00 | 0.00 | 76 | 1011.0 |
| 20260506221344 | 53 | 0 | 0.0 | 0.0 | 0.00 | 0.00 | 0.00 | 76 | 1011.0 |
| 20260506220342 | 55 | 280 | 0.9 | 0.0 | 0.00 | 0.00 | 0.00 | 67 | 1011.0 |
| 20260506215339 | 41 | 50 | 7.0 | 0.0 | 0.00 | 0.00 | 0.00 | 11 | 1011.0 |
| 20260506214337 | 42 | 50 | 7.0 | 0.0 | 0.00 | 0.00 | 0.00 | 11 | 1011.0 |
| 20260506213336 | 43 | 50 | 7.0 | 0.0 | 0.00 | 0.00 | 0.00 | 11 | 1011.0 |
| 20260506212334 | 44 | 50 | 7.0 | 0.0 | 0.00 | 0.00 | 0.00 | 11 | 1011.0 |
| 20260506211333 | 45 | 50 | 7.0 | 0.0 | 0.00 | 0.00 | 0.00 | 11 | 1011.0 |
| 20260506210333 | 46 | 50 | 7.0 | 0.0 | 0.00 | 0.00 | 0.00 | 11 | 1011.0 |
| 20260506205332 | 47 | 50 | 7.0 | 0.0 | 0.00 | 0.00 | 0.00 | 11 | 1011.0 |
| 20260506204331 | 48 | 50 | 7.0 | 0.0 | 0.00 | 0.00 | 0.00 | 11 | 1011.0 |
| 20260506202114 | 49 | 50 | 7.0 | 0.0 | 0.00 | 0.00 | 0.00 | 11 | 1011.0 |
| 20260506195859 | 50 | 50 | 7.0 | 0.0 | 0.00 | 0.00 | 0.00 | 11 | 1011.0 |
| 20260506194858 | 51 | 50 | 7.0 | 0.0 | 0.00 | 0.00 | 0.00 | 11 | 1011.0 |
| 20260506193857 | 52 | 50 | 7.0 | 0.0 | 0.00 | 0.00 | 0.00 | 11 | 1011.0 |
| 20260506192856 | 53 | 50 | 7.0 | 0.0 | 0.00 | 0.00 | 0.00 | 11 | 1010.0 |
| 20260506191856 | 54 | 50 | 7.0 | 0.0 | 0.00 | 0.00 | 0.00 | 11 | 1010.0 |
| 20260506190855 | 55 | 50 | 7.0 | 0.0 | 0.00 | 0.00 | 0.00 | 11 | 1010.0 |
| 20260506185854 | 56 | 50 | 7.0 | 0.0 | 0.00 | 0.00 | 0.00 | 11 | 1010.0 |
| 20260506184852 | 57 | 50 | 7.0 | 0.0 | 0.00 | 0.00 | 0.00 | 11 | 1010.0 |
| 20260506183851 | 58 | 50 | 7.0 | 0.0 | 0.00 | 0.00 | 0.00 | 11 | 1010.0 |
| 20260506182850 | 59 | 50 | 7.0 | 0.0 | 0.00 | 0.00 | 0.00 | 11 | 1010.0 |
| 20260506180639 | 60 | 50 | 7.0 | 0.0 | 0.00 | 0.00 | 0.00 | 11 | 1010.0 |
| 20260506174426 | 61 | 50 | 7.0 | 0.0 | 0.00 | 0.00 | 0.00 | 11 | 1010.0 |
| 20260506173423 | 62 | 50 | 7.0 | 0.0 | 0.00 | 0.00 | 0.00 | 11 | 1010.0 |
| 20260506165958 | 62 | 50 | 7.0 | 0.0 | 0.00 | 0.00 | 0.00 | 11 | 1010.0 |
| 20260506164957 | 63 | 50 | 7.0 | 0.0 | 0.00 | 0.00 | 0.00 | 11 | 1010.0 |
| 20260506162740 | 64 | 50 | 7.0 | 0.0 | 0.00 | 0.00 | 0.00 | 11 | 1009.0 |
| 20260506161740 | 64 | 50 | 7.0 | 0.0 | 0.00 | 0.00 | 0.00 | 11 | 1009.0 |
| 20260506160739 | 63 | 50 | 7.0 | 0.0 | 0.00 | 0.00 | 0.00 | 11 | 1009.0 |
| 20260506155737 | 63 | 50 | 7.0 | 0.0 | 0.00 | 0.00 | 0.00 | 11 | 1009.0 |
| 20260506154736 | 63 | 50 | 7.0 | 0.0 | 0.00 | 0.00 | 0.00 | 11 | 1009.0 |
| 20260506153734 | 62 | 50 | 7.0 | 0.0 | 0.00 | 0.00 | 0.00 | 11 | 1009.0 |
| 20260506152733 | 62 | 50 | 7.0 | 0.0 | 0.00 | 0.00 | 0.00 | 11 | 1010.0 |
| 20260506151732 | 62 | 50 | 7.0 | 0.0 | 0.00 | 0.00 | 0.00 | 11 | 1010.0 |
| 20260506150730 | 62 | 50 | 7.0 | 0.0 | 0.00 | 0.00 | 0.00 | 11 | 1010.0 |
| 20260506145730 | 62 | 50 | 7.0 | 0.0 | 0.00 | 0.00 | 0.00 | 11 | 1010.0 |
| 20260506144729 | 62 | 50 | 7.0 | 0.0 | 0.00 | 0.00 | 0.00 | 11 | 1010.0 |
| 20260506142514 | 62 | 50 | 7.0 | 0.0 | 0.00 | 0.00 | 0.00 | 11 | 1011.0 |
| 20260506141513 | 62 | 50 | 7.0 | 0.0 | 0.00 | 0.00 | 0.00 | 11 | 1011.0 |
| 20260506140513 | 62 | 50 | 7.0 | 0.0 | 0.00 | 0.00 | 0.00 | 11 | 1011.0 |
| 20260506135510 | 62 | 50 | 7.0 | 0.0 | 0.00 | 0.00 | 0.00 | 12 | 1011.0 |
| 20260506133257 | 61 | 50 | 7.0 | 0.0 | 0.00 | 0.00 | 0.00 | 12 | 1011.0 |
| 20260506132257 | 61 | 50 | 7.0 | 0.0 | 0.00 | 0.00 | 0.00 | 12 | 1012.0 |
| 20260506131256 | 61 | 50 | 7.0 | 0.0 | 0.00 | 0.00 | 0.00 | 12 | 1012.0 |
| 20260506130255 | 60 | 50 | 7.0 | 0.0 | 0.00 | 0.00 | 0.00 | 12 | 1011.0 |
| 20260506125254 | 60 | 50 | 7.0 | 0.0 | 0.00 | 0.00 | 0.00 | 12 | 1011.0 |
| 20260506124253 | 60 | 50 | 7.0 | 0.0 | 0.00 | 0.00 | 0.00 | 12 | 1011.0 |
| 20260506123253 | 59 | 50 | 7.0 | 0.0 | 0.00 | 0.00 | 0.00 | 12 | 1011.0 |
| 20260506122252 | 59 | 50 | 7.0 | 0.0 | 0.00 | 0.00 | 0.00 | 12 | 1012.0 |
| 20260506121250 | 59 | 50 | 7.0 | 0.0 | 0.00 | 0.00 | 0.00 | 12 | 1012.0 |
| 20260506120249 | 59 | 50 | 7.0 | 0.0 | 0.00 | 0.00 | 0.00 | 12 | 1012.0 |
| 20260506115248 | 58 | 50 | 7.0 | 0.0 | 0.00 | 0.00 | 0.00 | 13 | 1012.0 |
| 20260506114247 | 58 | 50 | 7.0 | 0.0 | 0.00 | 0.00 | 0.00 | 13 | 1012.0 |
| 20260506113245 | 58 | 50 | 7.0 | 0.0 | 0.00 | 0.00 | 0.00 | 13 | 1012.0 |
| 20260506111033 | 57 | 80 | 3.5 | 0.0 | 0.00 | 0.00 | 0.00 | 13 | 1013.0 |
| 20260506110031 | 57 | 80 | 3.5 | 0.0 | 0.00 | 0.00 | 0.00 | 13 | 1013.0 |
| 20260506105030 | 56 | 80 | 3.5 | 0.0 | 0.00 | 0.00 | 0.00 | 13 | 1013.0 |
| 20260506104029 | 55 | 90 | 3.5 | 0.0 | 0.00 | 0.00 | 0.00 | 13 | 1013.0 |
| 20260506103029 | 55 | 90 | 3.5 | 0.0 | 0.00 | 0.00 | 0.00 | 13 | 1013.0 |
| 20260506102027 | 55 | 90 | 3.5 | 0.0 | 0.00 | 0.00 | 0.00 | 13 | 1014.0 |
| 20260506101026 | 54 | 160 | 3.5 | 0.0 | 0.00 | 0.00 | 0.00 | 13 | 1014.0 |
| 20260506100025 | 54 | 160 | 3.5 | 0.0 | 0.00 | 0.00 | 0.00 | 13 | 1013.0 |
| 20260506093809 | 53 | 160 | 3.5 | 0.0 | 0.00 | 0.00 | 0.00 | 13 | 1013.0 |
| 20260506092808 | 52 | 160 | 3.5 | 0.0 | 0.00 | 0.00 | 0.00 | 14 | 1014.0 |
| 20260506091807 | 51 | 160 | 3.5 | 0.0 | 0.00 | 0.00 | 0.00 | 15 | 1014.0 |
| 20260506090806 | 50 | 160 | 3.5 | 0.0 | 0.00 | 0.00 | 0.00 | 16 | 1014.0 |
| 20260506085806 | 51 | 160 | 3.5 | 0.0 | 0.00 | 0.00 | 0.00 | 16 | 1014.0 |
| 20260506084805 | 50 | 160 | 3.5 | 0.0 | 0.00 | 0.00 | 0.00 | 16 | 1014.0 |
| 20260506083804 | 49 | 130 | 3.5 | 0.0 | 0.00 | 0.00 | 0.00 | 16 | 1014.0 |
| 20260506081551 | 50 | 130 | 3.5 | 0.0 | 0.00 | 0.00 | 0.00 | 16 | 1015.0 |